FW9981 Weather Reports


Display with metric or nautical units.
time (UTC)temp
F
wind
direction
speed
MPH
gust
MPH
rain 1hr
in
rain 24hr
in
rain mn
in
humidity
%
barometer
mb
20260507075603 46 16 1.0 1.0 0.00 0.17 0.17 99 1000.5
20260507075100 46 49 1.0 1.0 0.00 0.17 0.17 99 1000.6
20260507074556 46 62 0.0 1.0 0.00 0.17 0.17 99 1000.3
20260507074055 46 53 0.0 0.0 0.00 0.17 0.17 99 1000.6
20260507073550 46 350 2.0 2.0 0.00 0.17 0.17 99 1000.7
20260507073047 46 56 0.0 1.0 0.00 0.17 0.17 99 1000.7
20260507072545 46 57 0.0 0.0 0.00 0.17 0.17 99 1000.8
20260507072042 47 297 2.0 3.0 0.00 0.17 0.17 99 1000.7
20260507071539 47 46 0.0 0.0 0.00 0.17 0.17 99 1000.5
20260507071036 47 66 0.0 0.0 0.00 0.17 0.17 99 1000.2
20260507070533 47 78 0.0 0.0 0.00 0.17 0.17 99 1000.1
20260507070030 47 48 0.0 0.0 0.00 0.17 0.17 99 1000.1
20260507065526 47 48 0.0 0.0 0.00 0.17 0.17 99 1000.1
20260507065023 47 49 0.0 0.0 0.00 0.17 0.17 99 1000.1
20260507064521 47 45 1.0 1.0 0.00 0.17 0.17 99 1000.1
20260507064020 47 55 0.0 0.0 0.00 0.17 0.17 99 999.9
20260507063516 47 52 0.0 1.0 0.00 0.17 0.17 99 999.9
20260507063014 47 70 0.0 0.0 0.00 0.17 0.17 99 999.6
20260507062510 47 72 0.0 0.0 0.00 0.17 0.17 99 999.7
20260507062008 48 48 0.0 0.0 0.00 0.17 0.17 99 999.6
20260507061505 48 48 0.0 0.0 0.00 0.17 0.17 99 1000.0
20260507061003 48 80 0.0 0.0 0.00 0.17 0.17 99 999.9
20260507060500 48 52 0.0 0.0 0.00 0.17 0.17 99 999.5
20260507055956 48 45 0.0 0.0 0.00 0.17 0.17 99 999.5
20260507055452 48 45 0.0 0.0 0.00 0.17 0.17 99 999.6
20260507054949 48 45 0.0 1.0 0.00 0.17 0.17 99 999.6
20260507054445 48 48 0.0 1.0 0.00 0.17 0.17 99 999.3
20260507053942 48 74 1.0 1.0 0.00 0.17 0.17 99 999.4
20260507053440 48 62 0.0 0.0 0.00 0.17 0.17 99 999.6
20260507052938 48 49 1.0 1.0 0.00 0.17 0.17 99 999.6
20260507052436 48 47 2.0 3.0 0.00 0.17 0.17 99 999.5
20260507051933 48 70 2.0 2.0 0.00 0.17 0.17 99 999.5
20260507051430 49 88 1.0 1.0 0.00 0.17 0.17 99 999.8
20260507050927 49 64 1.0 1.0 0.00 0.17 0.17 99 999.8
20260507050423 49 76 1.0 1.0 0.00 0.17 0.17 99 999.6
20260507045920 49 60 0.0 1.0 0.00 0.17 0.17 99 1000.0
20260507045417 49 73 0.0 1.0 0.05 0.17 0.17 99 999.9
20260507044914 50 59 0.0 0.0 0.12 0.17 0.17 99 999.8
20260507044411 50 24 2.0 4.0 0.12 0.16 0.16 99 999.7
20260507043907 50 81 1.0 1.0 0.12 0.15 0.15 99 999.5
20260507043403 50 56 0.0 0.0 0.26 0.14 0.14 99 1000.0
20260507042859 50 68 1.0 1.0 0.47 0.13 0.13 99 1000.0
20260507042355 51 47 2.0 3.0 0.35 0.10 0.10 99 1000.0
20260507041846 51 52 1.0 1.0 0.07 0.05 0.05 99 1000.0
20260507041343 52 91 2.0 2.0 0.00 0.04 0.04 99 999.6
20260507040841 52 63 2.0 2.0 0.05 0.04 0.04 99 999.3
20260507040337 52 56 0.0 0.0 0.12 0.04 0.04 99 999.0
20260507035833 53 62 0.0 0.0 0.07 0.03 0.03 99 999.2
20260507035328 53 69 0.0 1.0 0.05 0.02 0.02 99 998.9
20260507034826 53 61 0.0 0.0 0.05 0.02 0.02 99 999.0
20260507034322 53 61 0.0 0.0 0.00 0.01 0.01 99 999.1
20260507033821 53 30 1.0 1.0 0.00 0.01 0.01 99 999.2
20260507033318 53 39 0.0 0.0 0.00 0.01 0.01 99 999.1
20260507032815 53 39 0.0 0.0 0.07 0.01 0.01 99 998.9
20260507032311 53 48 0.0 0.0 0.07 0.01 0.01 99 999.0
20260507031808 53 62 0.0 0.0 0.07 0.01 0.01 99 998.8
20260507031304 53 99 0.0 0.0 0.05 0.00 0.00 99 998.7
20260507030800 52 62 0.0 0.0 0.05 0.00 0.00 99 998.6
20260507030258 52 62 0.0 0.0 0.00 0.45 0.45 99 998.9
20260507025755 52 63 0.0 0.0 0.00 0.45 0.45 99 998.8
20260507025253 52 63 0.0 0.0 0.00 0.45 0.45 99 998.7
20260507024750 52 60 0.0 0.0 0.00 0.45 0.45 99 998.7
20260507024247 52 37 1.0 1.0 0.00 0.45 0.45 99 998.7
20260507023743 52 9 1.0 1.0 0.00 0.45 0.45 99 998.6
20260507023240 52 83 0.0 1.0 0.00 0.45 0.45 99 998.6
20260507022737 52 223 2.0 3.0 0.00 0.45 0.45 99 998.5
20260507022233 52 17 2.0 2.0 0.00 0.45 0.45 99 998.5
20260507021730 52 100 1.0 1.0 0.00 0.45 0.45 99 998.7
20260507021226 52 152 1.0 1.0 0.00 0.45 0.45 99 998.6
20260507020724 52 301 2.0 2.0 0.00 0.45 0.45 99 998.5
20260507020220 52 83 2.0 2.0 0.00 0.45 0.45 99 998.6
20260507015718 52 75 1.0 2.0 0.00 0.45 0.45 99 998.7
20260507015215 52 36 1.0 1.0 0.00 0.45 0.45 99 998.8
20260507014706 52 254 2.0 2.0 0.07 0.45 0.45 99 998.9
20260507014202 52 240 2.0 2.0 0.07 0.45 0.45 99 998.9
20260507013659 52 70 1.0 1.0 0.00 0.44 0.44 99 999.0
20260507013156 52 173 3.0 4.0 0.07 0.44 0.44 99 999.0
20260507012654 52 228 4.0 6.0 0.07 0.44 0.44 99 998.8
20260507012149 53 95 2.0 6.0 0.00 0.43 0.43 99 999.0
20260507011647 53 226 2.0 2.0 0.00 0.43 0.43 99 999.0
20260507011143 53 308 3.0 3.0 0.00 0.43 0.43 99 998.9
20260507010638 53 190 5.0 7.0 0.00 0.43 0.43 99 999.2
20260507010134 53 159 3.0 3.0 0.00 0.43 0.43 99 999.0
20260507005632 53 281 3.0 3.0 0.00 0.43 0.43 99 999.2
20260507005127 53 262 2.0 2.0 0.00 0.43 0.43 99 999.2
20260507004625 53 210 3.0 3.0 0.00 0.43 0.43 99 999.3
20260507004122 53 266 2.0 3.0 0.00 0.43 0.43 99 999.1
20260507003618 53 242 2.0 3.0 0.00 0.43 0.43 99 999.2
20260507003113 53 292 4.0 6.0 0.00 0.43 0.43 99 999.5
20260507002610 53 182 5.0 9.0 0.00 0.43 0.43 99 999.5
20260507002106 53 211 2.0 3.0 0.00 0.43 0.43 99 999.7
20260507001603 53 197 1.0 2.0 0.00 0.43 0.43 99 999.4
20260507001100 53 249 3.0 3.0 0.00 0.43 0.43 99 999.2
20260507000556 53 172 0.0 1.0 0.00 0.43 0.43 99 999.2
20260507000052 53 303 0.0 1.0 0.00 0.43 0.43 99 999.2
20260506235550 53 21 0.0 1.0 0.00 0.43 0.43 99 999.2
20260506235044 53 278 2.0 3.0 0.00 0.43 0.43 99 999.2
20260506234542 54 247 2.0 2.0 0.00 0.43 0.43 99 999.4
20260506234039 54 188 3.0 4.0 0.00 0.43 0.43 99 999.1
20260506233536 54 259 3.0 3.0 0.00 0.43 0.43 99 999.3
20260506233033 54 245 2.0 3.0 0.00 0.43 0.43 99 999.4
20260506232529 54 44 3.0 4.0 0.00 0.43 0.43 99 999.4
20260506232025 54 188 3.0 4.0 0.00 0.43 0.43 99 999.4
20260506231522 54 267 3.0 3.0 0.00 0.43 0.43 99 999.4
20260506231015 54 207 2.0 2.0 0.00 0.43 0.43 99 999.5
20260506230510 54 273 3.0 4.0 0.00 0.43 0.43 99 999.4
20260506230008 54 272 3.0 4.0 0.00 0.43 0.43 99 999.6
20260506225505 54 279 2.0 3.0 0.00 0.43 0.43 99 999.8
20260506225001 54 198 2.0 2.0 0.00 0.43 0.43 99 999.8
20260506224458 54 60 0.0 0.0 0.00 0.43 0.43 99 999.6
20260506223954 54 175 2.0 3.0 0.00 0.43 0.43 99 999.8
20260506223450 54 260 4.0 4.0 0.00 0.43 0.43 99 999.7
20260506222948 54 335 2.0 2.0 0.00 0.43 0.43 99 999.8
20260506222444 54 282 2.0 2.0 0.00 0.43 0.43 99 999.8
20260506221941 54 286 2.0 2.0 0.00 0.43 0.43 99 1000.3
20260506221438 54 244 2.0 2.0 0.00 0.43 0.43 99 1000.1
20260506220936 54 212 2.0 3.0 0.05 0.43 0.43 99 1000.1
20260506220431 54 331 3.0 3.0 0.12 0.43 0.43 99 1000.3
20260506215928 54 240 3.0 4.0 0.19 0.42 0.42 99 1000.3
20260506215424 54 300 2.0 2.0 0.17 0.41 0.41 99 1000.2
20260506214920 54 177 2.0 2.0 0.05 0.39 0.39 99 1000.3
20260506214417 54 276 1.0 1.0 0.07 0.38 0.38 99 1000.3
20260506213914 54 269 2.0 2.0 0.07 0.38 0.38 99 1000.3
20260506213412 54 239 4.0 9.0 0.07 0.38 0.38 99 1000.2
20260506212909 54 255 3.0 3.0 0.00 0.37 0.37 99 1000.4
20260506212405 54 182 5.0 6.0 0.00 0.37 0.37 99 1000.5
20260506211900 54 302 2.0 2.0 0.00 0.37 0.37 99 1000.4
20260506211356 54 255 4.0 7.0 0.05 0.37 0.37 99 1000.5
20260506210848 54 283 7.0 9.0 0.05 0.37 0.37 99 1000.6
20260506210345 54 47 0.0 1.0 0.12 0.37 0.37 99 1000.2
20260506205842 54 226 1.0 2.0 0.07 0.36 0.36 99 1000.7
20260506205338 54 252 3.0 3.0 0.05 0.35 0.35 99 1000.2
20260506204834 54 353 1.0 2.0 0.12 0.35 0.35 99 1000.3
20260506204332 54 220 2.0 2.0 0.07 0.34 0.34 99 1000.7
20260506203830 54 233 1.0 2.0 0.05 0.33 0.33 99 1000.7
20260506203327 54 167 1.0 2.0 0.05 0.33 0.33 99 1000.7
20260506202823 54 232 2.0 3.0 0.07 0.32 0.32 99 1000.6
20260506202321 54 64 0.0 0.0 0.14 0.32 0.32 99 1000.4
20260506201817 54 273 3.0 4.0 0.14 0.32 0.32 99 1000.6
20260506201315 54 305 2.0 3.0 0.12 0.31 0.31 99 1000.8
20260506200811 54 242 2.0 3.0 0.12 0.30 0.30 99 1000.7
20260506200307 54 268 3.0 3.0 0.07 0.29 0.29 99 1001.0
20260506195803 54 229 3.0 3.0 0.00 0.28 0.28 99 1000.8
20260506195300 54 14 2.0 2.0 0.05 0.28 0.28 99 1000.9
20260506194757 54 287 2.0 3.0 0.05 0.28 0.28 99 1000.9
20260506194254 54 31 1.0 2.0 0.07 0.27 0.27 99 1000.9
20260506193752 54 152 1.0 1.0 0.12 0.27 0.27 99 1000.9
20260506193248 54 351 2.0 2.0 0.12 0.26 0.26 99 1000.9
20260506192744 54 98 1.0 1.0 0.54 0.26 0.26 99 1001.4
20260506192242 54 55 3.0 3.0 0.71 0.17 0.17 99 1001.5
20260506191738 54 55 3.0 3.0 0.71 0.17 0.17 99 1001.5
20260506191235 54 106 0.0 1.0 0.38 0.10 0.10 99 1001.4
20260506190732 54 75 2.0 4.0 0.24 0.05 0.05 98 1001.7
20260506190228 54 18 2.0 2.0 0.17 0.04 0.04 97 1001.2
20260506185726 55 189 2.0 3.0 0.12 0.02 0.02 96 1001.4
20260506185222 55 264 3.0 3.0 0.07 0.01 0.01 95 1001.1
20260506184719 56 193 3.0 4.0 0.00 0.00 0.00 94 1001.3
20260506184217 56 244 2.0 3.0 0.00 0.00 0.00 92 1000.9
20260506183713 57 329 2.0 2.0 0.00 0.00 0.00 91 1001.1
20260506183209 57 288 2.0 2.0 0.00 0.00 0.00 90 1001.1
20260506182706 57 261 6.0 7.0 0.00 0.00 0.00 88 1001.1
20260506182203 58 268 1.0 2.0 0.00 0.00 0.00 88 1000.9
20260506181701 58 291 4.0 6.0 0.00 0.00 0.00 87 1001.2
20260506181158 58 52 1.0 1.0 0.00 0.00 0.00 87 1001.3
20260506180655 58 31 1.0 1.0 0.00 0.00 0.00 86 1001.2
20260506180151 59 264 2.0 3.0 0.00 0.00 0.00 86 1001.4
20260506175647 59 268 4.0 4.0 0.00 0.00 0.00 86 1001.2
20260506175145 59 2 0.0 0.0 0.00 0.00 0.00 86 1001.2
20260506174638 59 68 2.0 2.0 0.00 0.00 0.00 86 1001.2
20260506174134 59 340 2.0 2.0 0.00 0.00 0.00 86 1001.5
20260506173631 59 112 2.0 2.0 0.00 0.00 0.00 86 1001.5
20260506173128 59 210 3.0 3.0 0.00 0.00 0.00 86 1001.6
20260506172626 59 298 2.0 2.0 0.00 0.00 0.00 86 1001.8
20260506172121 60 270 3.0 3.0 0.00 0.00 0.00 86 1001.9
20260506171619 60 306 1.0 2.0 0.00 0.00 0.00 85 1001.9
20260506171116 60 223 2.0 2.0 0.00 0.00 0.00 85 1002.0
20260506170613 60 252 4.0 6.0 0.00 0.00 0.00 85 1001.9
20260506170105 60 240 2.0 2.0 0.00 0.00 0.00 85 1002.2
20260506165604 60 88 1.0 1.0 0.00 0.00 0.00 85 1002.3
20260506165059 60 89 1.0 1.0 0.00 0.00 0.00 85 1002.5
20260506164557 60 280 2.0 2.0 0.00 0.00 0.00 85 1002.6
20260506164054 60 219 3.0 3.0 0.00 0.00 0.00 85 1002.4
20260506163549 60 282 3.0 3.0 0.00 0.00 0.00 85 1002.8
20260506163045 60 162 1.0 1.0 0.00 0.00 0.00 85 1002.7
20260506162541 60 106 2.0 3.0 0.00 0.00 0.00 85 1002.9
20260506162033 60 61 1.0 1.0 0.00 0.00 0.00 86 1003.0
20260506161530 60 94 1.0 2.0 0.00 0.00 0.00 85 1003.1
20260506161022 60 53 0.0 0.0 0.00 0.00 0.00 85 1002.9
20260506160520 60 260 4.0 6.0 0.00 0.00 0.00 85 1003.3
20260506160016 60 142 1.0 2.0 0.00 0.00 0.00 85 1003.4
20260506155514 59 154 1.0 1.0 0.00 0.00 0.00 86 1003.5
20260506153646 60 194 2.0 2.0 0.00 0.00 0.00 85 1003.6
20260506153143 60 230 2.0 2.0 0.00 0.00 0.00 85 1003.6
20260506152640 60 144 1.0 2.0 0.00 0.00 0.00 85 1003.5
20260506152138 60 107 1.0 2.0 0.00 0.00 0.00 84 1003.3
20260506151636 60 309 3.0 3.0 0.00 0.00 0.00 84 1003.4
20260506151133 60 347 2.0 2.0 0.00 0.00 0.00 84 1003.3
20260506150630 60 127 2.0 3.0 0.00 0.00 0.00 84 1003.4
20260506150127 60 104 1.0 1.0 0.00 0.00 0.00 84 1003.4
20260506145623 59 137 2.0 2.0 0.00 0.00 0.00 86 1003.2
20260506145120 59 69 0.0 0.0 0.00 0.00 0.00 86 1003.2
20260506144618 59 57 2.0 2.0 0.00 0.00 0.00 85 1002.8
20260506144114 60 103 4.0 4.0 0.00 0.00 0.00 84 1003.0
20260506143612 60 79 1.0 1.0 0.00 0.00 0.00 85 1002.9
20260506143110 60 355 2.0 2.0 0.00 0.00 0.00 84 1002.9
20260506142608 60 83 2.0 2.0 0.00 0.00 0.00 85 1003.1
20260506142106 60 78 0.0 0.0 0.00 0.00 0.00 83 1003.1
20260506141603 60 24 2.0 3.0 0.00 0.00 0.00 84 1003.4
20260506141101 60 73 2.0 2.0 0.00 0.00 0.00 84 1003.4
20260506140558 60 110 0.0 1.0 0.00 0.00 0.00 84 1003.5
20260506140056 59 96 1.0 1.0 0.00 0.00 0.00 84 1003.5
20260506135552 59 142 1.0 2.0 0.00 0.00 0.00 85 1003.7
20260506135048 59 331 1.0 1.0 0.00 0.00 0.00 85 1004.0
20260506134545 59 165 1.0 1.0 0.00 0.00 0.00 85 1003.8
20260506134041 59 87 1.0 1.0 0.00 0.00 0.00 86 1003.7
20260506133538 59 59 0.0 1.0 0.00 0.00 0.00 85 1003.6
20260506133035 59 328 3.0 3.0 0.00 0.00 0.00 84 1003.5
20260506132533 59 50 1.0 1.0 0.00 0.00 0.00 84 1003.5
20260506132030 58 97 0.0 0.0 0.00 0.00 0.00 86 1003.6
20260506131527 58 319 2.0 2.0 0.00 0.00 0.00 85 1003.6
20260506131023 58 57 0.0 1.0 0.00 0.00 0.00 86 1003.4
20260506130520 58 273 4.0 4.0 0.00 0.00 0.00 86 1003.5
20260506130018 58 254 1.0 2.0 0.00 0.00 0.00 86 1003.6
20260506125516 57 25 1.0 1.0 0.00 0.00 0.00 86 1003.6
20260506125013 57 90 1.0 1.0 0.00 0.00 0.00 85 1003.7
20260506124511 57 34 1.0 1.0 0.00 0.00 0.00 87 1003.5
20260506124009 57 85 0.0 0.0 0.00 0.00 0.00 88 1003.6
20260506123506 57 38 1.0 1.0 0.00 0.00 0.00 87 1003.7
20260506123004 56 71 0.0 0.0 0.00 0.00 0.00 86 1003.5
20260506122501 56 80 1.0 1.0 0.00 0.00 0.00 88 1003.8
20260506121959 56 81 1.0 1.0 0.00 0.00 0.00 88 1003.8
20260506121456 55 85 0.0 0.0 0.00 0.00 0.00 89 1003.9
20260506120952 55 62 0.0 1.0 0.00 0.00 0.00 88 1004.1
20260506120450 55 74 0.0 0.0 0.00 0.00 0.00 89 1003.9
20260506115947 55 65 0.0 1.0 0.00 0.00 0.00 89 1004.1
20260506115445 55 95 1.0 1.0 0.00 0.00 0.00 88 1004.1
20260506114943 55 84 0.0 1.0 0.00 0.00 0.00 90 1004.3
20260506114440 54 84 0.0 0.0 0.00 0.00 0.00 89 1004.2
20260506113939 54 77 0.0 1.0 0.00 0.00 0.00 89 1004.4
20260506113436 54 78 0.0 0.0 0.00 0.00 0.00 89 1004.5
20260506112932 54 102 0.0 1.0 0.00 0.00 0.00 89 1004.5
20260506112430 54 74 1.0 1.0 0.00 0.00 0.00 90 1004.3
20260506111927 54 78 1.0 1.0 0.00 0.00 0.00 89 1004.7
20260506111425 54 77 0.0 0.0 0.00 0.00 0.00 90 1004.4
20260506110922 54 77 0.0 0.0 0.00 0.00 0.00 90 1004.7
20260506110420 53 78 0.0 0.0 0.00 0.00 0.00 90 1004.3
20260506105916 53 61 0.0 0.0 0.00 0.00 0.00 90 1004.5
20260506105413 53 72 0.0 0.0 0.00 0.00 0.00 91 1004.2
20260506104910 53 72 0.0 0.0 0.00 0.00 0.00 92 1004.2
20260506104408 53 72 0.0 0.0 0.00 0.00 0.00 91 1004.2
20260506103906 53 72 0.0 0.0 0.00 0.00 0.00 91 1004.2
20260506103403 52 72 0.0 0.0 0.00 0.00 0.00 92 1004.3
20260506102900 52 72 0.0 0.0 0.00 0.00 0.00 91 1004.1
20260506102358 52 73 1.0 1.0 0.00 0.00 0.00 92 1004.0
20260506101855 52 77 0.0 1.0 0.00 0.00 0.00 92 1003.9
20260506101351 52 81 2.0 2.0 0.00 0.00 0.00 92 1004.1
20260506100849 52 74 0.0 1.0 0.00 0.00 0.00 92 1004.0
20260506100347 52 86 0.0 1.0 0.00 0.00 0.00 91 1004.1
20260506095845 52 64 0.0 0.0 0.00 0.00 0.00 91 1004.2
20260506095342 52 78 0.0 1.0 0.00 0.00 0.00 91 1004.3
20260506094839 52 64 0.0 1.0 0.00 0.00 0.00 91 1004.1
20260506094338 52 81 0.0 0.0 0.00 0.00 0.00 90 1004.5
20260506093835 52 46 1.0 1.0 0.00 0.00 0.00 91 1004.7
20260506093332 52 68 0.0 1.0 0.00 0.00 0.00 91 1004.3
20260506092830 52 65 0.0 1.0 0.00 0.00 0.00 91 1004.3
20260506092328 53 87 0.0 1.0 0.00 0.00 0.00 91 1004.2
20260506091824 52 102 1.0 1.0 0.00 0.00 0.00 92 1004.0
20260506091322 52 119 2.0 2.0 0.00 0.00 0.00 92 1004.1
20260506090819 52 74 0.0 1.0 0.00 0.00 0.00 94 1003.9
20260506090317 52 74 0.0 0.0 0.00 0.00 0.00 93 1004.0
20260506085813 53 73 0.0 0.0 0.00 0.00 0.00 93 1003.9
20260506085309 53 73 0.0 0.0 0.00 0.00 0.00 93 1003.6
20260506084806 53 74 1.0 1.0 0.00 0.00 0.00 93 1003.7
20260506084302 53 75 0.0 0.0 0.00 0.00 0.00 92 1003.9
20260506083759 53 77 0.0 1.0 0.00 0.00 0.00 92 1003.9
20260506083257 52 67 0.0 1.0 0.00 0.00 0.00 92 1004.1
20260506082754 52 55 1.0 1.0 0.00 0.00 0.00 91 1004.1
20260506082250 52 69 0.0 0.0 0.00 0.00 0.00 92 1003.9
20260506081747 52 69 0.0 0.0 0.00 0.00 0.00 92 1003.8
20260506081245 52 71 0.0 1.0 0.00 0.00 0.00 91 1003.6
20260506080743 52 50 0.0 1.0 0.00 0.00 0.00 92 1003.8
20260506080239 52 50 0.0 0.0 0.00 0.00 0.00 91 1003.5